[[{"header":{"parameterUnit":"m.s-1","parameterCategory":1,"la1":30.2991,"la2":30.254,"lo1":-89.0895,"lo2":-89.0444,"dy":0.0017,"dx":0.0017,"nx":28,"ny":28,"refTime":"2023-11-04T03:00:00:Z","depth":0,"parameterNumber":2,"parameterNumberName":"U-component_of_WINDS"},"data":[0,0,0,0,0,0,0,0,0,0,0,0,0,0,0,0,0,0,0,0,0,0,0,0,0,0,0,0,0,0,0,0,0,0,0,0,0,0,0,0,0,0,0,0,0,0,0,0,0,0,0,0,0,0,0,0,0,0,0.7653,0.7653,0,0.7605,0.7604,0.7604,0.754,0.7539,0.7538,0.7537,0.7488,0.7488,0.7488,0,0,0,0,0,0,0,0,0,0,0,0,0,0.7691,0.7691,0.7653,0.7653,0.7652,0.7605,0.7604,0.7604,0.754,0.7539,0.7538,0.7536,0.7489,0.7488,0.7488,0,0,0,0,0,0,0,0,0,0,0,0,0,0.7662,0.769,0.7653,0.7615,0.7611,0.7605,0.7604,0.7603,0.754,0.7539,0.7537,0.7536,0.7489,0.7488,0.7488,0.7517,0,0,0.7486,0.7486,0,0,0,0,0,0,0,0,0.7664,0.7661,0.7621,0.7617,0.7613,0.7577,0.76,0.7574,0.7541,0.7567,0.7537,0.7535,0.7519,0.7516,0.7511,0.7514,0.7512,0.7486,0.7486,0.7486,0.7486,0,0,0,0,0,0,0,0.7666,0.7662,0.7634,0.762,0.7616,0.76,0.7594,0.7595,0.7553,0.7565,0.756,0.7555,0.7517,0.7511,0.7509,0.7511,0.7486,0.7486,0.7486,0.7485,0.7535,0.7536,0,0,0,0,0,0,0.7673,0.7664,0.7636,0.7633,0.7635,0.76,0.7594,0.759,0.7552,0.7545,0.7557,0.7552,0.7513,0.751,0.7507,0.7536,0.7486,0.7485,0.7485,0.7533,0.7535,0.7537,0,0,0,0,0,0,0.7674,0.7671,0.7638,0.7647,0.7642,0.7601,0.7598,0.759,0.7584,0.7546,0.7539,0.7558,0.7511,0.7508,0.7514,0.7534,0.7485,0.7485,0.7531,0.7534,0.7536,0.7597,0,0,0,0,0,0,0.7676,0.7672,0.7683,0.7648,0.7641,0.7646,0.7599,0.759,0.7583,0.7578,0.7546,0.7539,0.751,0.7515,0.7514,0.7532,0.7484,0.7529,0.7532,0.7535,0.7593,0.7601,0.7608,0,0,0,0,0,0.7677,0.7702,0.7683,0.768,0.7653,0.7647,0.7643,0.7608,0.7585,0.7595,0.7571,0.754,0.7533,0.7516,0.7514,0.7533,0.7528,0.7531,0.7535,0.7589,0.7599,0.7608,0,0,0,0,0,0,0.7741,0.7697,0.7676,0.769,0.7673,0.7636,0.7647,0.762,0.7609,0.7604,0.7562,0.7555,0.7567,0.7551,0.7534,0.7558,0.7525,0.7529,0.7568,0.7577,0.7584,0.7587,0.7484,0,0,0,0,0,0.7756,0.7754,0.7716,0.7733,0.7725,0.7688,0.7684,0.7659,0.7639,0.7631,0.7607,0.759,0.7583,0.7579,0.7571,0.7591,0.7582,0.7603,0.761,0.7617,0.762,0.7627,0.7635,0.7548,0.7548,0.7548,0,0,0.7788,0.7764,0.7766,0.7745,0.7728,0.7727,0.7682,0.7683,0.7681,0.7632,0.7635,0.7618,0.7595,0.7608,0.7612,0.7595,0.7642,0.7621,0.7627,0.7626,0.7632,0.764,0.7647,0.7551,0.755,0.755,0,0,0.7846,0.7828,0.7839,0.7823,0.7798,0.7774,0.7777,0.7744,0.773,0.7733,0.7695,0.7693,0.7683,0.7668,0.7659,0.7711,0.7682,0.771,0.7749,0.7756,0.7763,0.7769,0.7786,0.7792,0.7713,0.7713,0.7713,0,0.7888,0.7885,0.7848,0.785,0.7842,0.7797,0.7807,0.7794,0.7768,0.7763,0.7744,0.773,0.7712,0.7719,0.7732,0.7727,0.7728,0.7712,0.7765,0.7771,0.7775,0.7791,0.7797,0.7717,0.7716,0.7716,0.7716,0,0.7938,0.7936,0.7948,0.7923,0.7916,0.7923,0.7887,0.7884,0.786,0.7837,0.7841,0.7818,0.7803,0.7804,0.7781,0.7808,0.7798,0.7773,0.7739,0.7788,0.7801,0.7807,0.7721,0.772,0.7719,0.7718,0,0,0.8032,0.7987,0.7992,0.7979,0.7949,0.7947,0.7952,0.7937,0.7935,0.792,0.7921,0.7914,0.789,0.788,0.7855,0.7862,0.7902,0.7836,0.7835,0.7847,0.7929,0.7947,0.7954,0.7884,0.7885,0.7886,0.793,0,0.8082,0.8086,0.8053,0.8066,0.8063,0.8021,0.8025,0.8007,0.7986,0.798,0.7957,0.7952,0.7922,0.7915,0.7921,0.7896,0.7918,0.7893,0.7884,0.7884,0.7889,0.7961,0.798,0.8023,0.7936,0.7937,0.7937,0,0.814,0.8126,0.8139,0.8108,0.8105,0.8109,0.8093,0.8088,0.8067,0.8051,0.804,0.8011,0.8013,0.7982,0.7983,0.7967,0.7962,0.795,0.795,0.7946,0.7912,0.7958,0.8036,0.8042,0.7946,0.7945,0.7944,0,0.8205,0.819,0.8195,0.8187,0.8151,0.8154,0.8139,0.8116,0.8109,0.8095,0.809,0.8077,0.807,0.806,0.8028,0.8009,0.8033,0.8,0.8019,0.802,0.8024,0.8024,0.8101,0.8024,0.8024,0.8024,0.8024,0,0.8262,0.8271,0.8224,0.8227,0.8236,0.8198,0.8208,0.8189,0.8169,0.8167,0.8131,0.813,0.8089,0.8083,0.8059,0.8063,0.806,0.8047,0.8039,0.8049,0.805,0.8043,0.8038,0.8026,0.8026,0.8025,0.8025,0,0.8335,0.8304,0.8306,0.8272,0.8264,0.8271,0.8242,0.8243,0.822,0.8219,0.8216,0.818,0.8172,0.814,0.8124,0.8107,0.8119,0.8106,0.8125,0.812,0.814,0.8138,0.8214,0.8221,0.8143,0.8144,0.8144,0,0.8373,0.8378,0.8345,0.8341,0.8327,0.8322,0.8314,0.8278,0.8272,0.8248,0.8252,0.8241,0.823,0.8219,0.8191,0.8179,0.8164,0.8192,0.8162,0.8171,0.8162,0.8161,0.8161,0.8198,0.8199,0.8199,0.82,0,0.8442,0.8426,0.8417,0.8402,0.8395,0.8382,0.8366,0.8365,0.8325,0.832,0.8311,0.8302,0.8286,0.8275,0.8258,0.8242,0.8214,0.821,0.8213,0.8221,0.8231,0.8224,0.8141,0.8208,0.8207,0.8207,0.8206,0.8206,0.8497,0.8499,0.8475,0.8466,0.8451,0.8438,0.8437,0.8414,0.8405,0.8389,0.8368,0.8362,0.834,0.8314,0.83,0.8294,0.8279,0.8284,0.8285,0.8286,0.829,0.8234,0.8291,0.8291,0.8291,0.8291,0.829,0,0.8562,0.8545,0.8537,0.8516,0.8509,0.8484,0.8466,0.8461,0.8456,0.8438,0.8427,0.8416,0.8406,0.8377,0.8364,0.8364,0.8351,0.8361,0.836,0.8356,0.8306,0.8303,0.8372,0.8372,0.8372,0.8372,0.8372,0.8372,0.8595,0.8598,0.8579,0.8574,0.8556,0.8549,0.8541,0.8528,0.8513,0.8503,0.8493,0.8475,0.8453,0.8437,0.8426,0.8417,0.8413,0.8428,0.8415,0.8368,0.836,0.8353,0.835,0.8428,0.8428,0.8466,0.8467,0.8467]},{"header":{"parameterUnit":"m.s-1","parameterCategory":1,"la1":30.2991,"la2":30.254,"lo1":-89.0895,"lo2":-89.0444,"dy":0.0017,"dx":0.0017,"nx":28,"ny":28,"refTime":"2023-11-04T03:00:00:Z","depth":0,"parameterNumber":3,"parameterNumberName":"V-component_of_WINDS"},"data":[0,0,0,0,0,0,0,0,0,0,0,0,0,0,0,0,0,0,0,0,0,0,0,0,0,0,0,0,0,0,0,0,0,0,0,0,0,0,0,0,0,0,0,0,0,0,0,0,0,0,0,0,0,0,0,0,0,0,0.1934,0.1932,0,0.1725,0.1722,0.172,0.1619,0.162,0.162,0.162,0.1399,0.1393,0.1387,0,0,0,0,0,0,0,0,0,0,0,0,0,0.224,0.2235,0.1934,0.1931,0.1929,0.1725,0.1722,0.1719,0.1619,0.162,0.162,0.162,0.1401,0.1394,0.1387,0,0,0,0,0,0,0,0,0,0,0,0,0,0.2077,0.2233,0.1934,0.1855,0.1845,0.1726,0.1722,0.1719,0.1619,0.162,0.162,0.162,0.1403,0.1394,0.1386,0.1328,0,0,0.1358,0.1354,0,0,0,0,0,0,0,0,0.2086,0.2065,0.1869,0.186,0.1849,0.1698,0.1749,0.1587,0.1619,0.1705,0.162,0.162,0.1498,0.1481,0.1441,0.1317,0.1308,0.1357,0.1352,0.1348,0.1346,0,0,0,0,0,0,0,0.2097,0.2074,0.1851,0.1866,0.1854,0.1827,0.1804,0.1718,0.1603,0.1697,0.169,0.1667,0.1493,0.145,0.1436,0.1305,0.1358,0.135,0.1344,0.1341,0.112,0.112,0,0,0,0,0,0,0.2123,0.2084,0.1858,0.1845,0.1971,0.1821,0.1795,0.1747,0.1604,0.1582,0.1667,0.1663,0.1466,0.1446,0.1427,0.1349,0.1348,0.134,0.1335,0.1121,0.112,0.112,0,0,0,0,0,0,0.213,0.2104,0.1866,0.1962,0.193,0.1816,0.1762,0.1742,0.17,0.1581,0.1559,0.1645,0.1465,0.144,0.1353,0.134,0.1336,0.1328,0.1121,0.1121,0.112,0.1193,0,0,0,0,0,0,0.2139,0.2107,0.2085,0.1963,0.1925,0.1798,0.1761,0.1738,0.1686,0.1679,0.1555,0.1534,0.1463,0.1367,0.1344,0.1327,0.1321,0.1122,0.1121,0.112,0.1191,0.1195,0.1198,0,0,0,0,0,0.215,0.2113,0.2085,0.2058,0.1896,0.1797,0.1776,0.1697,0.1685,0.1661,0.1584,0.1538,0.1346,0.1359,0.1333,0.1313,0.1122,0.1121,0.112,0.1189,0.1194,0.1198,0,0,0,0,0,0,0.2234,0.2095,0.2062,0.1985,0.1904,0.1781,0.1748,0.1704,0.1623,0.1619,0.1522,0.1495,0.1417,0.1356,0.1374,0.1248,0.1229,0.1223,0.1291,0.1294,0.1298,0.1313,0.1313,0,0,0,0,0,0.2245,0.2178,0.2059,0.2002,0.1963,0.1863,0.1817,0.1763,0.1674,0.1639,0.1556,0.147,0.1389,0.1338,0.1258,0.1182,0.1152,0.1155,0.1159,0.1162,0.1157,0.111,0.111,0.1116,0.1116,0.1116,0,0,0.2263,0.2179,0.2143,0.2016,0.1947,0.1878,0.1835,0.1764,0.1711,0.1627,0.1541,0.1477,0.1374,0.1292,0.1252,0.1239,0.1149,0.116,0.1164,0.1157,0.1109,0.1109,0.1108,0.1115,0.1115,0.1116,0,0,0.2263,0.2193,0.2137,0.207,0.1966,0.19,0.1887,0.177,0.1725,0.1637,0.1573,0.1508,0.1372,0.1301,0.1247,0.122,0.1174,0.1196,0.1213,0.1169,0.1169,0.1168,0.1156,0.1154,0.1192,0.1192,0.1192,0,0.2299,0.2194,0.2114,0.2046,0.1992,0.1916,0.1857,0.1794,0.167,0.1633,0.1621,0.1449,0.1374,0.1274,0.1268,0.1227,0.1207,0.121,0.1176,0.1174,0.1172,0.116,0.1156,0.1196,0.1195,0.1195,0.1195,0,0.2243,0.2172,0.2138,0.2022,0.1964,0.1901,0.1809,0.1759,0.1711,0.1645,0.1555,0.1464,0.1363,0.1335,0.1286,0.1228,0.1223,0.1195,0.1173,0.1176,0.1163,0.1158,0.1201,0.1199,0.1198,0.1198,0,0,0.2289,0.2129,0.2118,0.2064,0.1945,0.1887,0.182,0.1724,0.1682,0.1599,0.1538,0.1426,0.1399,0.1338,0.128,0.1242,0.1224,0.1217,0.1214,0.1221,0.1152,0.1173,0.1169,0.1193,0.1192,0.1191,0.116,0,0.227,0.215,0.2075,0.1983,0.1915,0.1841,0.1783,0.1702,0.1639,0.157,0.1499,0.142,0.1392,0.1354,0.1313,0.1235,0.1209,0.1237,0.1134,0.1131,0.1161,0.1163,0.1185,0.116,0.1155,0.1154,0.1153,0,0.2233,0.2153,0.2056,0.1943,0.1912,0.1861,0.1766,0.1702,0.1608,0.1564,0.1497,0.1439,0.1363,0.1349,0.1242,0.1263,0.1216,0.1172,0.1169,0.1155,0.1142,0.1147,0.115,0.1146,0.1144,0.1145,0.1146,0,0.2274,0.2143,0.2067,0.2023,0.189,0.1856,0.1799,0.1705,0.1652,0.1568,0.1532,0.144,0.139,0.1319,0.1236,0.1234,0.1137,0.1116,0.1096,0.1098,0.1078,0.108,0.1072,0.1051,0.1051,0.1051,0.1051,0,0.2261,0.2204,0.2084,0.2037,0.197,0.1884,0.1819,0.1755,0.1672,0.161,0.154,0.1483,0.1379,0.1308,0.1243,0.1163,0.1141,0.1102,0.1085,0.1107,0.1112,0.1074,0.1073,0.105,0.105,0.105,0.1051,0,0.2296,0.2214,0.2126,0.2008,0.1977,0.1933,0.183,0.1781,0.1715,0.1637,0.1613,0.1508,0.1421,0.1332,0.1214,0.117,0.1091,0.1069,0.1124,0.1114,0.1099,0.1101,0.1065,0.1055,0.1043,0.1043,0.1043,0,0.2292,0.2247,0.2125,0.2079,0.2024,0.1952,0.1897,0.181,0.1756,0.1645,0.1609,0.1517,0.1439,0.1303,0.1214,0.1123,0.1097,0.109,0.1082,0.1106,0.1095,0.1098,0.1092,0.1093,0.1094,0.1094,0.1095,0,0.2294,0.2256,0.2181,0.2092,0.203,0.1955,0.1878,0.1844,0.1741,0.1683,0.1595,0.1534,0.1414,0.1323,0.1222,0.1159,0.1109,0.1098,0.1088,0.111,0.1143,0.1123,0.1131,0.1099,0.1098,0.1098,0.1098,0.1098,0.2308,0.2264,0.2171,0.209,0.2023,0.1952,0.19,0.1828,0.1753,0.165,0.1603,0.1513,0.1418,0.1277,0.1216,0.1143,0.113,0.1116,0.1112,0.111,0.1114,0.1156,0.1125,0.1124,0.1124,0.1124,0.1124,0,0.2305,0.2242,0.2169,0.2063,0.1999,0.196,0.1872,0.182,0.1743,0.1661,0.1586,0.1483,0.1394,0.1299,0.1204,0.1164,0.1138,0.1142,0.1143,0.1129,0.1133,0.115,0.1164,0.1164,0.1164,0.1164,0.1164,0.1164,0.2296,0.2219,0.2169,0.2057,0.1994,0.1907,0.186,0.1794,0.1727,0.1617,0.1543,0.1483,0.1394,0.1292,0.1208,0.1182,0.115,0.116,0.1127,0.1132,0.1129,0.1126,0.1142,0.1154,0.1154,0.1129,0.1129,0.1129]}]]